This demonstration page uses our WeatherBlox Daily Observations layout. Learn more.

Left ArrowRight Arrow

53.62937, 11.41316

Hourly Observations for January 22, 2016

Temp ( °F °C ) Dew Point ( °F °C ) Humidity (%) Winds ( mph kmh ) Pressure ( in mb ) Visibility ( mi km ) Precip ( " mm )
5:20 am 05:20 Cloudy with Mist and Fog 19 -7 18 -8 93 93 VRB 2 4 30.45 1031 1 2 N/A
5:50 am 05:50 Cloudy with Mist and Fog 19 -7 18 -8 93 93 ESE 3 6 30.45 1031 1 2 N/A
6:20 am 06:20 Cloudy with Mist and Fog 16 -9 14 -10 93 93 SE 3 6 30.45 1031 2 3 N/A
6:50 am 06:50 Cloudy with Mist and Fog 16 -9 14 -10 93 93 ESE 5 7 30.45 1031 2 3 N/A
7:20 am 07:20 Cloudy with Mist and Fog 16 -9 14 -10 93 93 E 3 6 30.45 1031 2 4 N/A
7:50 am 07:50 Cloudy with Mist and Fog 14 -10 12 -11 92 92 E 5 7 30.45 1031 2 4 N/A
8:20 am 08:20 Cloudy with Mist and Fog 14 -10 12 -11 92 92 E 6 9 30.45 1031 2 4 N/A
8:50 am 08:50 Partly Cloudy with Mist and Fog 14 -10 12 -11 92 92 E 5 7 30.48 1032 2 4 N/A
9:20 am 09:20 Partly Cloudy with Mist and Fog 12 -11 10 -12 92 92 E 7 11 30.48 1032 3 5 N/A
9:50 am 09:50 Mostly Sunny 14 -10 12 -11 92 92 E 6 9 30.45 1031 4 6 N/A
10:20 am 10:20 Mostly Sunny 16 -9 12 -11 86 86 E 6 9 30.45 1031 4 6 N/A
10:50 am 10:50 Mostly Sunny 18 -8 16 -9 93 93 ENE 6 9 30.45 1031 4 6 N/A
11:20 am 11:20 Mostly Sunny 19 -7 19 -7 100 100 ENE 5 7 30.45 1031 5 8 N/A
11:50 am 11:50 Mostly Sunny 21 -6 18 -8 86 86 VRB 2 4 30.45 1031 5 8 N/A
12:20 pm 12:20 Mostly Sunny 21 -6 19 -7 93 93 SE 7 11 30.42 1030 6 9 N/A
12:50 pm 12:50 Mostly Sunny 27 -3 21 -6 80 80 SE 9 15 30.42 1030 7 11 N/A
1:20 pm 13:20 Mostly Sunny 27 -3 18 -8 69 69 SE 8 13 30.42 1030 7 11 N/A
1:50 pm 13:50 Mostly Sunny 27 -3 19 -7 74 74 SE 8 13 30.39 1029 7 11 N/A
2:20 pm 14:20 Mostly Sunny 28 -2 18 -8 64 64 SE 9 15 30.39 1029 7 11 N/A
2:50 pm 14:50 Mostly Sunny 28 -2 16 -9 59 59 SSE 8 13 30.39 1029 7 11 N/A
3:20 pm 15:20 Mostly Sunny 28 -2 16 -9 59 59 SE 9 15 30.39 1029 7 11 N/A
3:50 pm 15:50 Mostly Sunny 27 -3 16 -9 64 64 SE 9 15 30.39 1029 7 11 N/A
4:20 pm 16:20 Mostly Sunny 25 -4 18 -8 74 74 SE 8 13 30.36 1028 7 11 N/A
4:50 pm 16:50 Mostly Clear 25 -4 18 -8 74 74 SE 8 13 30.36 1028 7 11 N/A
5:20 pm 17:20 Mostly Clear 25 -4 16 -9 69 69 SE 9 15 30.36 1028 7 11 N/A
5:50 pm 17:50 Mostly Clear 23 -5 16 -9 74 74 SE 9 15 30.36 1028 7 11 N/A

Powered by AerisWeather